Hourly Weather Roundup
Issued by NWS Central Illinois

Home | Current Version | Previous Version | Text Only | Print | Product List | Glossary On
Versions: 1 2 3 4 5 6 7 8 9 10 11 12 13 14 15 16 17 18 19 20 21 22 23 24 25 26 27 28 29 30 31 32 33 34 35 36 37 38 39 40 41 42 43 44 45 46 47 48 49 50
000
NZUS43 KILX 232210
HWRILX

AREA WEATHER ROUNDUP
NATIONAL WEATHER SERVICE, LINCOLN IL
500 PM CDT WED JUL 23 2014


CITY           SKY/WX    TMP DP  RH WIND       PRES   REMARKS
BLOOMINGTON    MOSUNNY   77  56  48 NE13      30.12S
CHAMPAIGN      SUNNY     75  57  53 NE18      30.09R
DECATUR        SUNNY     81  61  50 NE14      30.10R HX  81
FLORA          MOSUNNY   76  69  78 N3        30.03S
GALESBURG      MOSUNNY   79  59  49 NE12G21   30.13F HX  80
JACKSONVILLE   MOSUNNY   79  61  54 NE12G17   30.10S HX  80
LACON          PTSUNNY   77  55  47 N8G18     30.11S
LAWRENCEVILLE  CLOUDY    73  69  87 N10       30.03R FOG
LITCHFIELD     MOSUNNY   80  63  56 N15G21    30.07S HX  81
$$


CITY           SKY/WX    TMP DP  RH WIND       PRES   REMARKS
LINCOLN        MOSUNNY   79  57  46 N13       30.07S HX  80
MACOMB         MOSUNNY   76  58  52 NE9       30.14S
MATTOON        SUNNY     77  60  55 N18       30.05R
MT CARMEL AP   CLOUDY    77  72  83 N10       30.02R
OLNEY-NOBLE AP CLOUDY    73  68  83 CALM      30.03S
PARIS          SUNNY     77  62  59 N12G18    30.06R
PEORIA         PTSUNNY   79  55  43 NE12      30.11F
PONTIAC        MOSUNNY   79  55  44 NE13G18   30.11S
RANTOUL        SUNNY     77  51  41 N16G24    30.11R
ROBINSON       CLOUDY    77  70  80 CALM      30.03S
SPRINGFIELD    MOSUNNY   80  60  50 NE15      30.09F HX  81
TAYLORVILLE    MOSUNNY   77  61  57 N14G21    30.08S
$$

...REGIONAL REPORTS...


CITY           SKY/WX    TMP DP  RH WIND       PRES   REMARKS
CHICAGO O`HARE MOSUNNY   69  50  50 NE18G25   30.14S
KANKAKEE       SUNNY     71  51  50 N15G25    30.12S
MOLINE         MOSUNNY   78  53  41 N10G18    30.13F
MOUNT VERNON   MOSUNNY   75  68  78 N5        30.03F
PITTSFIELD     PTSUNNY   79  61  53 N8G16     30.10S HX  80
QUINCY         MOSUNNY   80  61  52 N15       30.10F HX  81
ROCKFORD       PTSUNNY   76  52  43 N15       30.15F
$$


CITY           SKY/WX    TMP DP  RH WIND       PRES   REMARKS
BURLINGTON     SUNNY     79  58  48 NE13      30.12F HX  80
CEDAR RAPIDS   MOSUNNY   78  55  44 N8        30.15F
DES MOINES     MOSUNNY   84  58  40 NE13      30.15F HX  83
KIRKSVILLE     MOSUNNY   80  62  54 NE15G21   30.13S HX  81
OTTUMWA        SUNNY     80  57  45 NE10      30.14F HX  80
ST LOUIS       MOSUNNY   84  66  54 N15       30.05F HX  86
$$


CITY           SKY/WX    TMP DP  RH WIND       PRES   REMARKS
TERRE HAUTE    CLOUDY    76  66  71 N9        30.02S
EVANSVILLE     PTSUNNY   82  71  69 VRB7      29.99F HX  86
INDIANAPOLIS   CLOUDY    73  67  81 N9        30.01F
LAFAYETTE      SUNNY     74  56  53 N17G25    30.05F
MADISON        PTSUNNY   78  55  44 N9        30.15F
MILWAUKEE      MOSUNNY   64  53  67 NE12G21   30.18S
$$





USA.gov is the U.S. government's official web portal to all federal, state and local government web resources and services.